Location: Obersdorf
(47.4079°N, 10.2781°E)
Time: 02:24:21
(UTC+01:00)

XW-2C - Pass Details

Date: 08 December 2021
Orbit: 503 x 523 km, 97.5° (Epoch: 16 January)

Event Time Altitude Azimuth Distance (km) Brightness Sun altitude
Rises 05:17:33 0° 30° (NNE) 2,669 ? -25.3°
Reaches altitude 10° 05:20:26 10° 54° (NE) 1,774 ? -24.9°
Maximum altitude 05:22:43 15° 91° (E) 1,468 ? -24.5°
Drops below altitude 10° 05:24:59 10° 127° (SE) 1,762 ? -24.1°
Sets 05:27:49 0° 151° (SSE) 2,641 ? -23.6°
